Weather observations for the past three days for
Saint John, N. B.
| Date | Time (adt) | Wind (mph) | Vis. (mi.) | Weather | Sky Cond. | Temperature (ºF) | Relative Humidity | Wind Chill (°F) | Heat Index (°F) | Pressure | Precipitation (in) | ||||||
|---|---|---|---|---|---|---|---|---|---|---|---|---|---|---|---|---|---|
| Air | Dwpt | 6 hour | altimeter (in) | sea level (mb) | 1 hr | 3 hr | 6 hr | ||||||||||
| Max. | Min. | ||||||||||||||||
| 06 | 17:00 | N 17 G 24 | 5.00 | Light Rain Fog/Mist | BKN008 OVC020 | 51.8 | 51.8 | 100% | 29.83 | 1010.7 | |||||||
| 06 | 16:00 | N 10 G 17 | 5.00 | Rain Fog/Mist | OVC008 | 51.8 | 51.8 | 100% | 29.83 | 1010.5 | |||||||
| 06 | 15:00 | N 18 G 29 | 8.00 | Light Rain | OVC011 | 53.6 | 51.8 | 94% | 29.83 | 1010.6 | |||||||
| 06 | 14:00 | N 14 G 22 | 12.00 | Light Rain | OVC010 | 51.8 | 51.8 | 100% | 29.83 | 1010.6 | |||||||
| 06 | 13:00 | N 18 G 25 | 10.00 | Light Rain | OVC010 | 51.8 | 51.8 | 100% | 29.83 | 1010.6 | |||||||
| 06 | 12:00 | N 16 G 24 | 15.00 | Light Rain | OVC010 | 51.8 | 51.8 | 100% | 29.83 | 1010.7 | |||||||
| 06 | 11:00 | N 18 G 29 | 12.00 | Light Rain | OVC010 | 51.8 | 51.8 | 100% | 29.83 | 1010.6 | |||||||
| 06 | 10:00 | N 18 G 32 | 12.00 | Light Rain | BKN011 OVC085 | 51.8 | 51.8 | 100% | 29.82 | 1010.1 | |||||||
| 06 | 09:00 | N 21 G 32 | 10.00 | Light Rain and Breezy | BKN010 OVC073 | 51.8 | 51.8 | 100% | 29.82 | 1010.2 | |||||||
| 06 | 08:00 | N 22 G 31 | 8.00 | Light Rain and Breezy | BKN009 OVC100 | 50 | 50 | 100% | 44 | 29.81 | 1010.0 | ||||||
| 06 | 07:00 | N 20 G 26 | 15.00 | Overcast | OVC012 | 51.8 | 50 | 94% | 29.8 | 1009.6 | |||||||
| 06 | 06:00 | N 20 G 29 | 15.00 | Overcast | OVC011 | 51.8 | 50 | 94% | 29.8 | 1009.3 | |||||||
| 06 | 05:00 | N 17 G 25 | 15.00 | Overcast | OVC010 | 53.6 | 51.8 | 94% | 29.8 | 1009.6 | |||||||
| 06 | 04:00 | N 21 G 28 | 15.00 | Overcast and Breezy | OVC009 | 51.8 | 51.8 | 100% | 29.8 | 1009.4 | |||||||
| 06 | 03:00 | N 15 G 25 | 10.00 | Overcast | OVC009 | 51.8 | 51.8 | 100% | 29.8 | 1009.6 | |||||||
| 06 | 02:00 | N 18 G 28 | 8.00 | Overcast | OVC007 | 51.8 | 51.8 | 100% | 29.8 | 1009.5 | |||||||
| 06 | 01:00 | N 23 G 29 | 8.00 | Light Rain and Breezy | OVC007 | 53.6 | 53.6 | 100% | 29.79 | 1009.2 | |||||||
| 06 | 00:00 | N 21 G 31 | 10.00 | Overcast and Breezy | SCT012 OVC024 | 53.6 | 53.6 | 100% | 29.8 | 1009.4 | |||||||
| 05 | 23:00 | N 23 G 31 | 15.00 | Overcast and Breezy | OVC024 | 57.2 | 50 | 77% | 29.81 | 1009.9 | |||||||
| 05 | 22:00 | N 20 G 32 | 15.00 | Overcast | OVC021 | 57.2 | 51.8 | 82% | 29.83 | 1010.4 | |||||||
| 05 | 21:00 | N 22 G 32 | 15.00 | Mostly Cloudy and Breezy | BKN027 | 57.2 | 51.8 | 82% | 29.82 | 1010.2 | |||||||
| 05 | 20:00 | N 26 G 37 | 15.00 | Mostly Cloudy and Windy | FEW023 BKN050 BKN086 | 57.2 | 53.6 | 88% | 29.8 | 1009.5 | |||||||
| 05 | 19:00 | N 23 G 32 | 15.00 | Mostly Cloudy and Breezy | FEW020 BKN044 BKN080 | 59 | 53.6 | 82% | 29.8 | 1009.4 | |||||||
| 05 | 18:00 | N 17 G 28 | 15.00 | Mostly Cloudy | SCT024 BKN055 BKN080 | 62.6 | 53.6 | 73% | 29.78 | 1008.8 | |||||||
| 05 | 17:00 | NE 23 G 32 | 15.00 | Showers in Vicinity and Breezy | SCT026 BKN078 | 62.6 | 51.8 | 68% | 29.77 | 1008.4 | |||||||
| 05 | 15:00 | NE 17 G 32 | 15.00 | Mostly Cloudy | SCT019 BKN035 | 60.8 | 59 | 94% | 29.76 | 1007.9 | |||||||
| 05 | 14:00 | N 18 G 26 | 15.00 | Light Showers Rain | BKN020 BKN095 | 60.8 | 57.2 | 88% | 29.75 | 1007.6 | |||||||
| 05 | 13:00 | N 23 G 30 | 15.00 | Light Showers Rain and Breezy | BKN025 BKN095 | 62.6 | 55.4 | 77% | 29.73 | 1007.0 | |||||||
| 05 | 12:00 | NE 20 G 29 | 15.00 | Mostly Cloudy | BKN017 | 62.6 | 57.2 | 83% | 29.72 | 1006.7 | |||||||
| 05 | 11:00 | N 22 G 28 | 10.00 | Showers in Vicinity and Breezy | BKN015 | 60.8 | 55.4 | 83% | 29.72 | 1006.8 | |||||||
| 05 | 09:00 | N 15 G 29 | 15.00 | Overcast | OVC015 | 59 | 59 | 100% | 29.71 | 1006.2 | |||||||
| 05 | 08:00 | N 21 G 32 | 15.00 | Overcast and Breezy | OVC015 | 59 | 55.4 | 88% | 29.69 | 1005.6 | |||||||
| 05 | 07:00 | N 24 | 15.00 | Overcast and Breezy | OVC013 | 59 | 55.4 | 88% | 29.69 | 1005.5 | |||||||
| 05 | 06:00 | N 17 G 24 | 15.00 | Overcast | OVC012 | 59 | 57.2 | 94% | 29.69 | 1005.5 | |||||||
| 05 | 05:00 | N 20 G 28 | 15.00 | Overcast | OVC016 | 59 | 57.2 | 94% | 29.67 | 1005.1 | |||||||
| 05 | 04:00 | N 18 G 24 | 10.00 | Overcast | OVC012 | 60.8 | 60.8 | 100% | 29.67 | 1004.9 | |||||||
| 05 | 03:00 | N 18 G 28 | 15.00 | Overcast | OVC013 | 60.8 | 59 | 94% | 29.66 | 1004.8 | |||||||
| 05 | 02:00 | N 14 G 22 | 15.00 | Overcast | OVC009 | 60.8 | 60.8 | 100% | 29.67 | 1004.9 | |||||||
| 05 | 01:00 | N 15 G 22 | 15.00 | Mostly Cloudy | BKN009 BKN020 | 60.8 | 60.8 | 100% | 29.67 | 1005.0 | |||||||
| 05 | 00:00 | N 14 | 15.00 | Overcast | BKN007 OVC014 | 62.6 | 62.6 | 100% | 29.68 | 1005.2 | |||||||
| 04 | 23:00 | N 9 | 15.00 | Overcast | BKN011 OVC060 | 62.6 | 62.6 | 100% | 29.68 | 1005.4 | |||||||
| 04 | 22:00 | N 10 G 17 | 15.00 | Overcast | BKN010 OVC035 | 64.4 | 64.4 | 100% | 29.69 | 1005.5 | |||||||
| 04 | 20:00 | NW 6 | 15.00 | A Few Clouds | FEW020 FEW070 | 62.6 | 62.6 | 100% | 29.67 | 1005.1 | |||||||
| 04 | 19:00 | NW 6 | 15.00 | A Few Clouds | FEW020 | 68 | 62.6 | 83% | 29.67 | 1005.1 | |||||||
| 04 | 18:00 | N 12 | 15.00 | Partly Cloudy | SCT020 | 68 | 62.6 | 83% | 29.69 | 1005.6 | |||||||
| 04 | 17:00 | N 13 | 12.00 | Overcast | SCT012 OVC025 | 66.2 | 62.6 | 88% | 29.69 | 1005.8 | |||||||
| 04 | 16:00 | NW 13 G 20 | 15.00 | Overcast | SCT014 OVC023 | 66.2 | 62.6 | 88% | 29.7 | 1005.9 | |||||||
| 04 | 15:00 | N 13 | 12.00 | Overcast | BKN010 OVC015 | 66.2 | 62.6 | 88% | 29.71 | 1006.2 | |||||||
| 04 | 14:00 | NW 10 | 8.00 | Overcast | OVC009 | 66.2 | 66.2 | 100% | 29.71 | 1006.4 | |||||||
| 04 | 13:00 | NW 12 | 8.00 | Overcast | OVC009 | 66.2 | 62.6 | 88% | 29.72 | 1006.7 | |||||||
| 04 | 12:00 | N 7 | 4.00 | Fog/Mist | BKN005 OVC011 | 66.2 | 66.2 | 100% | 29.74 | 1007.2 | |||||||
| 04 | 11:00 | NW 7 | 3.00 | Fog/Mist | OVC004 | 64.4 | 64.4 | 100% | 29.74 | 1007.5 | |||||||
| 04 | 10:00 | Vrbl 2 | 3.00 | Fog/Mist | OVC004 | 64.4 | 64.4 | 100% | 29.75 | 1007.8 | |||||||
| 04 | 09:00 | E 5 | 3.00 | Fog/Mist | OVC005 | 62.6 | 62.6 | 100% | 29.77 | 1008.2 | |||||||
| 04 | 08:00 | E 6 | 3.00 | Light Drizzle Fog/Mist | OVC005 | 60.8 | 60.8 | 100% | 29.77 | 1008.4 | |||||||
| 04 | 07:00 | E 5 | 5.00 | Light Drizzle Fog/Mist | BKN006 OVC013 | 60.8 | 60.8 | 100% | 29.77 | 1008.4 | |||||||
| 04 | 06:00 | E 5 | 3.00 | Light Rain Fog/Mist | FEW006 OVC016 | 59 | 59 | 100% | 29.79 | 1009.0 | |||||||
| 04 | 05:00 | E 9 | 3.00 | Light Rain Fog/Mist | SCT005 OVC020 | 59 | 59 | 100% | 29.8 | 1009.5 | |||||||
| 04 | 04:00 | E 9 | 3.00 | Light Rain Fog/Mist | SCT004 OVC023 | 59 | 59 | 100% | 29.82 | 1010.1 | |||||||
| 04 | 03:00 | E 15 | 3.00 | Light Rain Fog/Mist | BKN005 OVC025 | 59 | 59 | 100% | 29.84 | 1010.9 | |||||||
| 04 | 02:00 | SE 14 | 3.00 | Light Rain Fog/Mist | OVC005 | 59 | 59 | 100% | 29.87 | 1011.9 | |||||||
| 04 | 01:00 | E 13 | 3.00 | Light Rain Fog/Mist | OVC005 | 59 | 59 | 100% | 29.9 | 1012.8 | |||||||
| 04 | 00:00 | SE 10 | 2.00 | Light Rain Fog/Mist | BKN006 OVC021 | 59 | 59 | 100% | 29.92 | 1013.4 | |||||||
| 03 | 23:00 | SE 14 G 20 | 2.00 | Rain Fog/Mist | BKN005 OVC032 | 59 | 59 | 100% | 29.93 | 1013.9 | |||||||
| 03 | 22:00 | SE 12 G 20 | 3.00 | Light Rain Fog/Mist | BKN006 OVC024 | 60.8 | 60.8 | 100% | 29.95 | 1014.6 | |||||||
| 03 | 21:00 | SE 13 G 18 | 3.00 | Light Rain Fog/Mist | SCT005 BKN017 OVC038 | 59 | 59 | 100% | 29.96 | 1014.9 | |||||||
| 03 | 20:00 | SE 9 G 17 | 5.00 | Light Rain Fog/Mist | BKN018 OVC043 | 60.8 | 60.8 | 100% | 29.97 | 1015.4 | |||||||
| 03 | 19:00 | SE 10 G 17 | 5.00 | Light Rain Fog/Mist | OVC035 | 60.8 | 60.8 | 100% | 29.99 | 1015.9 | |||||||
| Date | Time (adt) | Wind (mph) | Vis. (mi.) | Weather | Sky Cond. | Air | Dwpt | Max. | Min. | Relative Humidity | Wind Chill (°F) | Heat Index (°F) | altimeter (in) | sea level (mb) | 1 hr | 3 hr | 6 hr |
| 6 hour | |||||||||||||||||
| Temperature (ºF) | Pressure | Precipitation (in) | |||||||||||||||